Location: Capannuccia
(43.7000°N, 11.3000°E)
Time: 20:34:48
(UTC+00:00)

SL-4 R/B - Visible Passes

Search period start: 29 September 2020 00:00
Search period end: 09 October 2020 00:00
Orbit: 428 x 665 km, 51.6° (Epoch: 28 September)

Date Brightness Start Highest point End Pass type
(mag) Time Alt. Az. Time Alt. Az. Time Alt. Az.
29 Sep 4.5 01:57:17 24° NE 01:57:17 24° NE 01:59:18 10° NE visible
29 Sep 3.7 03:32:52 20° NW 03:35:12 31° N 03:39:27 10° ENE visible
30 Sep 4.7 01:51:06 21° NE 01:51:06 21° NE 01:52:47 10° NE visible
30 Sep 3.7 03:26:41 21° NW 03:28:52 30° N 03:33:06 10° ENE visible
01 Oct 4.9 01:44:56 18° NE 01:44:56 18° NE 01:46:19 10° NE visible
01 Oct 3.7 03:20:31 22° NW 03:22:31 31° N 03:26:46 10° ENE visible
02 Oct 5.1 01:38:47 16° NE 01:38:47 16° NE 01:39:51 10° NE visible
02 Oct 3.7 03:14:22 24° NNW 03:16:10 32° N 03:20:28 10° ENE visible
03 Oct 5.2 01:32:41 14° NE 01:32:41 14° NE 01:33:24 10° NE visible
03 Oct 3.6 03:08:17 27° NNW 03:09:48 34° NNE 03:14:09 10° ENE visible
03 Oct 2.5 04:45:17 10° WNW 04:50:00 81° NNE 04:54:51 10° ESE visible
04 Oct 5.4 01:26:38 12° NE 01:26:38 12° NE 01:26:58 10° ENE visible
04 Oct 3.5 03:02:14 31° NNW 03:03:25 37° NNE 03:07:51 10° E visible
04 Oct 2.4 04:38:48 10° WNW 04:43:30 83° SSW 04:48:21 10° SE visible
05 Oct 3.3 02:56:16 37° N 02:57:02 40° NNE 03:01:32 10° E visible
05 Oct 2.4 04:32:19 10° WNW 04:36:59 68° SW 04:41:47 10° SE visible
06 Oct 3.1 02:50:24 45° NNE 02:50:36 46° NNE 02:55:12 10° E visible
06 Oct 2.6 04:26:01 11° WNW 04:30:26 53° SW 04:35:08 10° SE visible
07 Oct 3.1 02:44:39 50° NE 02:44:39 50° NE 02:48:50 10° ESE visible
07 Oct 2.9 04:20:16 15° WNW 04:23:52 42° SW 04:28:24 10° SSE visible
08 Oct 3.4 02:39:02 43° E 02:39:02 43° E 02:42:27 10° ESE visible
08 Oct 3.2 04:14:40 19° W 04:17:17 33° SW 04:21:33 10° SSE visible
